Location: Newark
(37.9128°N, 122.4756°W)
Time: 04:01:02
(UTC+00:00)

LightSail 2 - Visible Passes

Search period start: 13 November 2019 00:00
Search period end: 23 November 2019 00:00
Orbit: 701 x 726 km, 24.0° (Epoch: 11 November)

Date Brightness Start Highest point End Pass type
(mag) Time Alt. Az. Time Alt. Az. Time Alt. Az.
13 Nov 7.3 13:17:12 11° SW 13:20:17 17° S 13:23:36 10° SE visible
14 Nov 7.2 12:22:59 17° S 12:22:59 17° S 12:25:54 10° SE visible
14 Nov 7.4 14:04:41 10° SW 14:07:23 14° S 14:10:04 10° SSE visible
15 Nov 7.2 13:07:43 13° SSW 13:09:42 16° S 13:12:44 10° SSE visible
16 Nov 7.4 12:13:27 15° SSE 12:13:27 15° SSE 12:15:13 10° SE visible
16 Nov 7.5 13:55:27 10° SSW 13:56:44 11° SSW 13:58:01 10° S visible
17 Nov 7.3 12:58:09 12° SSW 12:59:03 13° SSW 13:01:22 10° SSE visible
18 Nov 7.8 12:03:52 11° SSE 12:03:52 11° SSE 12:04:09 10° SSE visible
